Weather Service Report


686 
FPUS83 KFGF 281231
OPUFGF
PRAIRIE TO PINES WEATHER ROUNDUP
NATIONAL WEATHER SERVICE EASTERN NORTH DAKOTA/GRAND FORKS ND
700 AM CDT THU JUL 28 2016

 **SATELLITE DATA USED TO AUGMENT SKY COVER AT AUTOMATED STATIONS**
 *****  WEATHER ACROSS EASTERN NORTH DAKOTA  *****
  
CITY           SKY/WX    TMP DP  RH WIND       PRES   REMARKS
GRAND FORKS    PTCLDY    58  56  93 N5        30.11R                  
6HR MIN TEMP:  58; 6HR MAX TEMP:  62;                                

GRAND FORKS AF CLEAR     58  56  92 N9        30.13R                  
GRAND CITY NWS   N/A     59 N/A N/A N7          N/A                   
BUXTON           N/A     61  60  98 N8          N/A                   
DEVILS LAKE    CLOUDY    56  55  97 N3        30.16S                  
6HR MIN TEMP:  53; 6HR MAX TEMP:  59;                                

FARGO          CLOUDY    63  60  90 N5        30.08R                  
6HR MIN TEMP:  62; 6HR MAX TEMP:  64; 6HR PCP: TRACE;                

WAHPETON ARPT  PTSUNNY   61  59  94 CALM      30.09R                  
$$

 *****  WEATHER ACROSS CENTRAL AND WESTERN NORTH DAKOTA  *****
  
CITY           SKY/WX    TMP DP  RH WIND       PRES   REMARKS
JAMESTOWN      PTCLDY    57  55  93 N7        30.12S                  
6HR MIN TEMP:  55; 6HR MAX TEMP:  61;                                

BISMARCK       CLOUDY    63  59  87 E7        30.15R                  
6HR MIN TEMP:  62; 6HR MAX TEMP:  66; 6HR PCP: TRACE;                

MINOT          CLOUDY    62  57  83 NE5       30.16S                  
6HR MIN TEMP:  61; 6HR MAX TEMP:  66; 6HR PCP: TRACE;                

MINOT AFB      MOCLDY    59  56  89 E6        30.15S                  
6HR MIN TEMP:  59; 6HR MAX TEMP:  63; 6HR PCP: TRACE;                

GARRISON         N/A     61  59  93 NE3       30.15S                  
6HR MIN TEMP:  61; 6HR MAX TEMP:  64; 6HR PCP:  0.06;                

WILLISTON      PTCLDY    60  58  92 N6        30.16R                  
6HR MIN TEMP:  60; 6HR MAX TEMP:  65; 6HR PCP:  0.04;                

DICKINSON      RAIN      59  59 100 SE8       30.14R FOG              
6HR MIN TEMP:  57; 6HR MAX TEMP:  60; 6HR PCP:  0.41;                

HETTINGER      CLOUDY    59  57  93 E6        30.14S FOG              
6HR MIN TEMP:  57; 6HR MAX TEMP:  63;                                

$$

 *****  OTHER OBSERVATIONS NORTHEAST NORTH DAKOTA  *****
  
CITY           SKY/WX    TMP DP  RH WIND       PRES   REMARKS
WALHALLA       FAIR      54  50  87 NW6       30.17S                  
LANGDON        FAIR      54  54 100 NE5       30.18S                  
CAVALIER       FAIR      55  54  94 NW6       30.16S                  
GRAFTON        FAIR      57  55  94 N7        30.16S                  
CANDO          FAIR      52  52 100 N8        30.19S                  
FORT TOTTEN      N/A     58  55  91 NE5       29.95S                  
ROLLA          FAIR      54  54 100 NW5       30.20R                  
RUGBY          NOT AVBL                                               
 ***** THE ABOVE OBSERVATIONS ARE NON NWS ARE NOT QUALITY
        CONTROLLED AND MAY MIS-REPORT RAIN FOR SNOW...
$$

 *****  OTHER OBSERVATIONS SOUTHEAST NORTH DAKOTA *****
  
CITY           SKY/WX    TMP DP  RH WIND       PRES   REMARKS
COOPERSTOWN    NOT AVBL                                               
VALLEY CITY    FAIR      59  59 100 N7        30.13S                  
OAKES            N/A    N/A N/A N/A MISG        N/A                   
GWINNER        FAIR      61  59  94 N7        30.10S                  
SHEYENNE NWR     N/A     59  57  94 N3        29.95                   
BUFFALO          N/A     60  57  92 N5          N/A                   
WYNDMERE         N/A     61  61 100 NW2         N/A                   
 ***** THE ABOVE OBSERVATIONS ARE NON NWS ARE NOT QUALITY
       CONTROLLED AND MAY MIS-REPORT RAIN FOR SNOW...
$$

  *****  WEATHER ACROSS NORTHERN MINNESOTA  *****     
  
CITY           SKY/WX    TMP DP  RH WIND       PRES   REMARKS
FLAG ISLAND    CLOUDY    63  52  67 NE9       30.13S                  
WARROAD        CLEAR     57  54  88 N8        30.15R                  
ROSEAU         CLEAR     54  48  82 NE5       30.15R                  
HALLOCK        CLEAR     57  55  94 CALM      30.14S                  
THF RVR FALLS  CLOUDY    58  54  86 NE13      30.13R                  
6HR MIN TEMP:  57; 6HR MAX TEMP:  64;                                

HALSTAD          N/A     62  59  91 N6          N/A                   
FOSSTON        PTCLDY    59  55  88 CALM      30.11S                  
BAUDETTE       SUNNY     56  53  90 N5        30.13R                  
6HR MIN TEMP:  52; 6HR MAX TEMP:  60;                                

WASKISH        PTCLDY    57  54  88 E3        30.11                   
CROOKSTON      CLEAR     61  55  82 E7        30.12R                  
$$
  *****  WEATHER ACROSS CENTRAL AND WEST MINNESOTA  *****     
  
CITY           SKY/WX    TMP DP  RH WIND       PRES   REMARKS
BEMIDJI        CLOUDY    59  55  88 NE5       30.11R                  
PARK RAPIDS    CLOUDY    62  60  93 N3        30.10R                  
6HR MIN TEMP:  59; 6HR MAX TEMP:  65;                                

WADENA         PTCLDY    61  59  94 N3        30.09R FOG              
DETROIT LAKES  PTCLDY    64  61  88 NE3       30.10S                  
MOORHEAD       CLOUDY    63  61  94 N3        30.10R                  
FERGUS FALLS   MOCLDY    64  64 100 E3        30.10R                  
ELBOW LAKE     FAIR      65  62  91 NE5       30.09R                  
MORRIS MN      CLOUDY    63  61  94 CALM      30.07R                  
STAPLES        MOCLDY    61  61 100 CALM      30.08R                  
WHEATON        CLOUDY    63  63 100 CALM      30.10R                  
$$
  *****  WEATHER ELSEWHERE ACROSS MINNESOTA  *****     
  
CITY           SKY/WX    TMP DP  RH WIND       PRES   REMARKS
DULUTH         MOSUNNY   59  54  83 N3        30.08R                  
6HR MIN TEMP:  56; 6HR MAX TEMP:  60;                                

INTRNTL FALLS  SUNNY     60  54  80 NE5       30.11R                  
6HR MIN TEMP:  55; 6HR MAX TEMP:  63;                                

ELY            FOG       55  55 100 CALM      30.10S VSB<1/4          
CLOQUET        SUNNY     61  54  77 NE5       30.07S                  
BRAINERD       MOCLDY    61  60  97 NE3       30.07S                  
6HR MIN TEMP:  59; 6HR MAX TEMP:  62;                                

HIBBING        SUNNY     54  54 100 CALM      30.09R                  
6HR MIN TEMP:  47; 6HR MAX TEMP:  55;                                

ALEXANDRIA     CLOUDY    63  60  90 NE5       30.09R                  
6HR MIN TEMP:  62; 6HR MAX TEMP:  65;                                

SAINT CLOUD    CLOUDY    59  58  96 N6        30.05R                  
6HR MIN TEMP:  58; 6HR MAX TEMP:  62;                                

MINNEAPOLIS    CLOUDY    66  62  87 N9        30.01R                  
6HR MIN TEMP:  65; 6HR MAX TEMP:  68;                                

$$

  *****  WEATHER ACROSS SOUTH DAKOTA  *****
  
CITY           SKY/WX    TMP DP  RH WIND       PRES   REMARKS
SIOUX FALLS    PTCLDY    63  58  83 CALM      30.06R                  
6HR MIN TEMP:  61; 6HR MAX TEMP:  67;                                

BROOKINGS      CLOUDY    59  57  93 NW5       30.08R                  
WATERTOWN      CLOUDY    61  58  90 N7        30.09R                  
6HR MIN TEMP:  60; 6HR MAX TEMP:  62;                                

HURON          PTCLDY    60  58  92 NW5       30.08S                  
6HR MIN TEMP:  58; 6HR MAX TEMP:  67;                                

SISSETON         N/A     60  58  92 NW9       30.08R                  
ABERDEEN       MOCLDY    61  58  90 N5        30.10S                  
6HR MIN TEMP:  61; 6HR MAX TEMP:  66; 6HR PCP: TRACE;                

MITCHELL       PTCLDY    61  59  93 NW3       30.08S                  
PIERRE         CLOUDY    62  58  86 E6        30.10R                  
6HR MIN TEMP:  59; 6HR MAX TEMP:  64;                                

MOBRIDGE       MOCLDY    61  57  87 CALM      30.09S                  
RAPID CITY     PTCLDY    59  57  93 W8        30.08R                  
6HR MIN TEMP:  59; 6HR MAX TEMP:  67; 6HR PCP:  0.04;                

$$

  *****  SOME WEATHER IN NEARBY STATES *****
  
CITY           SKY/WX    TMP DP  RH WIND       PRES   REMARKS
GLASGOW MT     CLEAR     57  54  89 VRB5      30.17R                  
6HR MIN TEMP:  56; 6HR MAX TEMP:  61;                                

GREAT FALLS MT MOCLDY    59  50  72 E5        30.19S                  
6HR MIN TEMP:  54; 6HR MAX TEMP:  65; 6HR PCP: TRACE;                

CHEYENNE WY    PTCLDY    58  55  90 NW12      30.24R                  
6HR MIN TEMP:  57; 6HR MAX TEMP:  65;                                

SCOTTSBLUFF NE CLOUDY    62  54  74 NE21G28   30.20R                  
6HR MIN TEMP:  60; 6HR MAX TEMP:  68;                                

OMAHA NE       PTCLDY    70  66  87 N5        30.02R                  
6HR MIN TEMP:  70; 6HR MAX TEMP:  76;                                

DES MOINES IA  PTCLDY    71  66  84 N5        29.95F                  
6HR MIN TEMP:  70; 6HR MAX TEMP:  76;                                

DAVENPORT IA   MOSUNNY   69  68  96 CALM      29.92R FOG              
6HR MIN TEMP:  64; 6HR MAX TEMP:  71;                                

CHICAGO IL     CLOUDY    75  68  78 E6        29.91R                  
6HR MIN TEMP:  71; 6HR MAX TEMP:  75;                                

EAU CLAIRE WI  CLOUDY    66  65  96 NE7       29.96S                  
6HR MIN TEMP:  65; 6HR MAX TEMP:  66; 6HR PCP:  0.01;                

LA CROSSE WI   CLOUDY    69  66  90 N8        29.92R                  
6HR MIN TEMP:  68; 6HR MAX TEMP:  72; 6HR PCP: TRACE;                

$$

  *****  SOME NATIONAL WEATHER *****
  
CITY           SKY/WX    TMP DP  RH WIND       PRES   REMARKS
LA GUARDIA NY  PTSUNNY   79  73  82 NE7       29.91S                  
6HR MIN TEMP:  78; 6HR MAX TEMP:  81;                              C1F1C2F2C3F3C4F4C5F5C6F6C7F7C8F8C9F9CaFaCbFbCcFcCdFdCe!

Return to Home page


Western Regional Climate Center, wrcc@dri.edu